Theta_e
323 324 325 326 332 331 335 333 327 325 326 325 326 326 327 336 339 341 335 335 339 341 340 339 338 336 335 334 335 336 335 335 336 335 335 333 335 336 337 335 333 334 335 334 335 331 330 330 328
323 325 327 326 332 335 334 330 330 325 325 324 325 327 329 341 336 335 335 336 341 341 340 339 339 337 336 334 331 333 333 333 335 336 335 335 336 336 335 334 332 332 332 332 330 330 330 330 330
324 325 327 329 331 333 335 333 332 329 323 326 326 325 335 335 335 335 335 335 340 341 340 340 340 338 336 333 331 331 330 330 335 336 336 334 335 335 334 332 329 330 329 329 330 330 330 330 329
324 324 322 329 333 332 334 335 332 325 324 322 323 332 330 328 332 334 335 335 341 341 340 339 339 339 336 332 331 333 331 333 335 335 336 335 332 331 331 330 328 328 329 328 330 329 329 329 328
325 324 329 331 331 329 331 331 328 326 324 324 324 327 331 326 328 334 336 336 341 342 340 339 338 338 336 335 333 333 333 330 333 334 334 333 332 331 329 329 328 327 326 327 328 328 329 328 324
323 323 332 334 331 328 327 320 325 326 324 324 324 325 327 315 314 322 332 336 340 341 340 339 337 338 337 336 334 332 332 331 330 331 332 332 331 329 328 328 327 326 327 326 328 330 327 324 322
322 325 328 326 325 324 322 319 322 322 322 322 318 328 320 310 311 311 319 331 339 341 340 339 338 338 337 335 335 332 331 331 331 330 330 332 331 328 327 328 327 324 327 324 328 328 326 323 322
315 314 318 318 320 322 315 315 315 316 317 313 319 325 322 310 308 308 310 316 331 339 339 339 339 338 337 335 334 333 330 330 330 330 329 328 330 328 326 328 326 324 325 324 326 327 327 323 322
317 321 320 320 319 319 309 310 310 309 311 309 312 317 308 306 306 306 306 308 312 323 335 336 337 338 337 336 334 331 328 329 329 328 327 328 331 328 326 328 326 324 325 325 326 326 325 325 322
315 313 315 312 310 310 306 305 304 304 302 304 304 305 305 306 306 304 304 305 306 306 308 320 334 336 336 335 334 331 328 328 327 327 327 326 328 327 325 328 325 324 325 327 325 326 325 324 322
311 314 310 307 307 305 305 304 302 302 302 302 302 302 302 304 304 304 304 305 305 305 306 307 309 326 334 335 333 332 329 326 327 327 327 327 327 326 325 327 325 324 326 326 325 325 324 323 321
306 307 305 305 306 304 303 301 300 301 301 302 301 301 303 303 302 303 304 305 306 306 306 306 307 308 325 332 333 332 331 327 328 327 326 326 326 324 327 326 325 324 327 327 326 325 324 322 322
305 305 305 305 305 304 302 302 301 301 301 300 301 304 303 302 302 304 306 306 307 307 307 307 306 306 307 311 330 332 329 328 325 327 327 325 327 326 327 326 325 324 327 327 326 324 323 323 325
305 305 303 304 303 303 303 301 302 300 300 301 302 302 301 301 301 305 307 307 307 307 307 307 307 307 307 307 307 319 332 328 327 327 327 326 326 326 327 327 325 325 327 327 325 322 324 325 325
304 303 302 303 303 303 301 301 301 300 301 301 301 300 300 301 305 306 307 307 306 306 306 306 306 306 307 307 307 307 307 326 330 326 326 326 326 326 326 327 326 326 327 327 324 323 324 324 323
305 303 300 303 303 303 301 300 301 300 301 301 301 300 300 303 307 308 307 307 307 307 306 306 305 305 305 305 306 307 307 308 316 329 326 327 327 326 326 327 327 327 327 326 324 324 323 322 321
299 298 301 302 302 303 302 301 301 300 301 300 300 300 302 305 307 308 308 308 308 306 305 305 305 305 304 304 304 305 305 307 315 318 328 327 327 326 326 327 327 327 326 324 322 321 321 317 315
299 301 302 302 301 300 299 299 300 300 300 300 299 302 306 307 306 307 308 308 306 306 305 304 304 303 303 303 303 303 303 304 307 315 316 327 328 327 326 326 326 326 326 323 321 318 315 317 312
302 302 301 299 300 301 300 300 301 302 301 301 301 304 304 305 305 307 307 306 305 306 305 305 304 303 302 302 302 303 303 303 303 306 307 310 327 328 326 326 326 326 325 322 319 314 312 304 308
300 299 298 299 300 303 302 303 303 303 304 303 305 305 305 307 306 305 305 305 305 305 304 303 301 301 301 301 302 302 302 303 303 303 304 304 311 327 326 325 326 325 324 322 316 312 308 304 306
298 299 299 299 301 303 302 302 304 304 305 305 303 303 303 304 304 302 302 302 303 302 301 299 299 299 299 298 299 300 300 300 301 302 304 307 311 311 326 325 326 325 323 320 313 311 312 301 303
297 299 299 300 303 302 303 303 304 305 303 303 303 302 302 302 302 301 300 301 301 300 298 296 296 296 295 296 296 297 298 299 299 301 302 303 304 309 316 325 325 324 322 320 313 310 310 307 304
297 298 298 300 303 303 305 300 304 304 305 303 303 302 301 300 299 300 300 300 299 298 296 294 294 293 293 294 294 294 296 297 299 300 301 302 305 305 308 313 325 324 322 320 314 310 309 309 307
299 301 304 304 303 296 304 304 303 303 305 304 303 301 299 298 299 299 299 298 296 294 293 291 291 291 292 292 292 293 294 295 296 297 299 300 303 306 309 311 323 324 322 319 313 311 309 308 308
301 296 289 293 297 298 304 303 303 302 303 304 302 300 297 297 299 298 296 294 293 291 289 289 289 289 289 290 291 292 292 293 296 297 299 301 303 306 310 313 320 323 322 318 314 311 310 309 309
303 297 289 287 294 298 300 300 302 303 302 301 300 298 298 299 298 297 295 292 290 289 288 288 288 288 289 289 290 291 292 293 295 297 298 300 302 304 312 316 312 322 321 318 315 312 310 308 309
300 296 299 289 290 296 300 302 303 303 302 301 299 298 298 298 297 295 292 289 288 287 287 287 287 287 287 288 289 291 292 293 294 296 298 300 302 304 309 318 320 322 321 319 315 312 310 309 309
300 300 297 289 288 288 296 301 302 302 302 301 297 298 298 297 296 293 290 288 287 287 286 286 286 286 287 288 289 290 292 293 293 294 298 300 301 304 306 318 322 322 319 316 314 312 310 308 307
295 295 292 294 295 291 293 297 298 301 301 297 296 298 297 296 295 291 288 287 286 286 285 286 286 286 287 289 290 291 293 294 294 295 296 300 303 304 311 319 322 321 317 314 312 311 309 306 304
297 300 294 288 290 297 294 298 299 298 298 296 296 298 296 295 294 290 287 286 286 285 285 285 285 286 288 292 292 292 294 294 295 297 299 301 302 305 309 318 317 317 314 313 313 311 308 303 298
Wind_Speed
9 9 10 3 2 3 3 5 4 3 4 3 1 4 4 3 3 3 5 5 8 24 26 23 22 21 21 22 23 22 20 18 16 15 15 17 15 17 16 21 24 23 21 19 20 20 18 19 19
11 9 1 1 3 1 4 3 10 5 1 6 8 6 8 4 5 5 6 10 10 21 24 25 21 22 22 22 21 22 21 20 18 18 18 18 16 18 19 19 21 20 17 16 17 19 18 19 19
6 3 3 3 2 4 2 6 9 15 7 6 4 6 5 5 4 3 15 8 10 19 20 23 22 22 22 22 22 21 22 20 20 20 21 20 18 16 18 19 18 18 16 16 14 17 18 19 20
6 5 4 2 4 3 3 4 5 9 9 10 5 7 5 13 5 13 11 7 12 15 18 18 21 21 19 20 21 21 22 22 21 20 23 22 21 20 18 18 20 20 17 16 16 17 18 19 20
3 3 2 1 5 4 3 5 6 3 3 7 5 6 4 8 11 13 13 14 10 16 13 12 18 21 20 20 21 22 25 22 21 21 22 23 23 22 20 21 21 19 20 19 18 18 18 18 20
2 3 2 2 3 4 4 1 2 4 3 4 6 4 1 4 12 14 13 16 7 14 14 16 15 22 22 20 21 21 23 23 24 22 22 23 24 22 20 22 21 20 19 20 21 19 19 19 19
3 3 3 4 5 5 3 5 4 3 4 4 5 3 4 4 10 13 12 14 5 8 12 16 16 21 22 22 21 23 25 25 25 24 23 23 23 21 21 23 22 19 22 21 21 19 21 19 18
3 3 2 3 4 3 7 7 5 7 2 6 3 1 1 4 11 11 12 10 9 1 4 10 17 20 23 24 24 24 25 27 27 25 24 25 24 24 24 25 23 21 23 23 21 21 22 20 18
3 3 2 3 2 1 5 5 3 4 2 2 4 4 4 7 11 13 12 11 9 7 6 8 13 20 24 26 26 24 25 27 28 28 26 25 28 27 22 29 26 23 25 25 21 23 23 21 21
3 3 1 4 1 3 4 4 7 5 7 4 6 2 4 9 11 10 9 8 10 13 13 11 13 18 24 27 28 26 26 29 29 31 29 30 28 29 27 29 26 27 29 27 26 24 23 21 22
3 2 1 2 3 2 3 5 6 6 5 5 6 7 9 7 10 9 10 8 9 12 16 16 14 17 22 29 28 30 30 30 33 34 33 33 32 30 31 31 28 29 30 29 29 26 24 23 24
2 2 3 4 3 5 5 6 7 6 7 8 9 8 3 6 7 10 8 10 14 16 16 16 17 16 17 23 30 31 34 35 38 39 36 36 37 36 36 35 32 31 32 32 31 29 25 23 24
1 2 5 4 3 4 5 5 6 13 15 10 8 3 5 7 10 9 4 8 11 15 16 18 21 22 18 16 24 29 33 38 44 40 41 40 39 41 39 39 37 35 34 34 31 30 27 25 24
2 4 6 5 2 2 3 5 1 7 5 9 6 8 8 9 7 1 6 6 10 13 16 17 18 21 23 23 21 21 30 29 33 40 43 44 44 43 42 36 38 39 39 38 35 30 31 27 28
2 5 5 4 2 2 2 8 6 5 6 9 14 10 9 6 4 3 5 2 4 7 11 16 19 20 22 25 25 25 26 23 30 34 40 47 45 44 42 36 38 40 38 41 38 36 33 34 32
2 3 4 2 2 2 6 10 15 7 7 10 12 11 8 3 3 2 3 4 6 7 8 12 16 20 22 23 26 27 25 24 24 31 38 43 48 43 38 36 38 40 39 41 39 40 39 39 37
7 2 3 9 11 5 3 13 13 11 11 13 11 12 6 3 1 4 10 7 6 7 12 16 17 19 26 27 27 29 29 25 21 28 35 44 43 44 40 41 44 44 41 37 37 39 43 39 35
3 3 4 5 5 5 8 19 16 15 8 10 10 7 4 3 6 8 6 7 8 9 11 16 21 24 25 28 33 34 33 30 25 22 29 40 50 52 48 43 44 49 41 37 36 42 36 43 38
2 3 5 5 1 9 3 17 18 20 6 9 8 2 4 6 5 2 7 8 8 15 22 27 27 29 32 31 30 32 28 33 37 30 25 36 39 52 56 48 44 48 45 40 38 41 43 28 41
3 4 5 7 6 6 8 17 14 13 4 5 5 1 4 3 5 7 14 20 25 30 29 25 25 26 28 28 29 32 31 30 31 36 34 36 36 40 52 46 44 47 43 44 39 43 31 24 42
3 2 3 6 8 5 8 7 6 5 2 4 7 4 8 8 7 8 14 25 26 28 27 23 25 27 28 30 33 31 28 26 26 27 30 24 26 39 53 54 46 51 45 43 43 45 41 27 32
4 2 3 8 5 2 5 4 5 4 5 5 4 6 4 7 9 13 20 25 27 22 27 28 32 32 30 31 31 31 27 23 24 27 30 31 31 30 28 49 46 46 45 45 46 46 44 40 37
8 7 7 4 2 3 3 3 7 6 3 4 2 6 7 6 8 17 16 25 24 29 28 30 31 32 35 30 30 31 30 28 25 26 27 29 30 31 26 36 58 56 53 50 52 50 44 47 44
8 7 2 1 2 3 5 4 6 4 3 3 3 7 7 8 16 16 24 25 31 30 31 33 31 31 30 31 32 33 30 29 26 25 26 27 29 28 27 34 49 56 55 51 52 54 48 44 42
6 5 4 6 4 5 2 1 10 8 4 3 3 8 7 8 16 18 21 21 27 29 31 31 30 31 32 32 32 32 33 32 26 23 21 23 23 26 27 34 35 54 56 52 52 53 52 52 45
3 5 4 4 2 5 6 6 6 5 7 3 4 7 11 14 16 19 19 22 26 29 30 31 32 33 31 31 32 32 31 29 26 24 26 27 25 26 28 30 28 44 50 50 49 46 45 45 44
3 3 4 4 1 2 4 7 9 5 4 6 11 9 13 14 17 19 18 25 28 29 31 31 32 34 33 31 31 30 29 29 25 22 28 29 29 29 28 32 30 39 47 47 49 46 44 45 45
3 2 2 3 2 5 6 6 6 7 6 7 11 11 13 17 18 17 17 23 28 29 31 32 31 32 33 32 30 28 27 26 25 27 26 29 31 32 34 31 31 31 35 38 39 39 38 39 38
2 2 2 3 4 4 3 7 7 3 2 4 11 12 13 18 17 16 16 25 27 30 31 32 31 32 33 30 25 24 22 23 23 27 29 28 26 29 27 30 31 34 33 33 32 29 28 29 31
4 6 5 4 5 4 3 8 7 5 6 6 14 14 14 17 16 15 16 24 26 29 31 30 31 31 33 24 15 17 18 20 21 22 24 23 24 21 25 31 31 31 33 38 34 32 34 35 30
Wind_Direction
330 314 314 309 69 81 246 267 253 279 62 317 126 80 127 69 353 125 30 48 171 168 174 173 176 173 171 171 175 174 172 164 163 163 163 162 154 161 155 144 138 135 133 134 135 131 141 138 137
331 346 302 75 120 211 266 277 11 10 234 28 37 20 48 77 31 86 340 338 183 165 175 173 180 179 176 174 178 181 179 172 169 170 163 163 160 144 142 145 146 142 144 142 148 138 136 135 136
326 292 83 118 175 196 191 333 325 309 24 25 23 48 54 344 30 39 356 16 164 161 173 176 184 184 185 183 180 181 180 176 176 179 168 164 166 161 155 157 158 153 156 163 159 148 149 142 139
331 20 27 87 246 265 93 214 264 319 359 35 6 71 68 33 35 2 9 22 163 160 167 180 190 190 189 192 187 182 181 179 176 173 170 167 169 175 176 171 162 162 163 164 161 158 154 151 149
279 66 53 29 276 278 164 170 235 356 23 17 9 356 82 31 27 26 23 34 169 168 175 183 201 197 195 195 196 191 184 185 187 183 180 178 178 177 180 177 173 166 166 163 163 161 159 155 153
27 101 86 231 275 279 100 330 205 10 7 16 28 360 132 42 28 22 20 25 187 187 185 191 200 207 200 203 203 201 198 194 192 190 189 185 184 188 187 181 178 173 171 170 167 167 164 161 157
126 108 226 298 293 313 85 349 40 2 350 39 319 294 170 8 22 22 23 22 71 189 193 198 197 209 209 208 210 211 207 200 199 196 191 190 188 191 193 186 181 176 175 179 176 176 167 164 161
125 102 297 285 271 2 5 356 357 55 309 310 356 288 107 350 13 15 23 24 41 195 225 212 210 207 215 216 216 215 215 211 207 205 201 204 204 197 194 191 184 183 182 186 177 171 168 167 161
22 66 216 264 28 165 11 10 334 286 228 330 276 0 148 26 9 20 19 17 4 353 297 267 240 224 221 221 222 219 218 216 212 208 206 208 197 196 204 192 186 188 186 191 184 174 170 173 168
86 132 220 17 76 319 322 352 324 336 332 297 302 319 34 42 9 10 17 2 352 345 339 313 274 243 229 223 225 221 217 214 213 211 205 206 205 200 207 197 192 193 192 193 188 183 178 175 170
350 194 15 79 117 45 299 321 329 318 292 239 299 300 333 1 357 334 324 323 331 324 312 316 320 289 253 224 220 224 221 217 215 211 210 206 209 206 205 198 199 198 193 195 190 186 182 178 174
60 53 66 330 31 353 328 311 324 244 247 271 282 281 297 329 308 303 324 340 335 327 314 314 322 340 286 257 235 223 221 219 216 214 211 211 206 205 205 199 199 203 197 193 189 187 184 180 177
179 337 337 320 328 246 294 290 269 275 278 272 248 220 274 270 280 300 16 355 351 349 339 325 313 313 317 328 266 247 229 217 216 218 214 212 206 205 204 199 198 202 202 195 188 186 189 180 178
281 288 270 251 249 273 1 287 80 274 300 298 298 264 250 255 275 20 32 15 351 337 336 336 331 322 314 312 305 295 248 232 221 212 213 217 210 208 207 198 203 199 202 193 191 186 174 179 180
283 337 323 258 272 249 106 295 209 286 345 337 322 307 290 260 153 119 123 42 323 330 332 333 332 331 326 320 314 305 294 285 236 220 214 213 214 207 205 198 198 195 196 192 190 178 177 174 170
344 81 13 351 280 228 85 271 274 285 320 304 296 291 261 240 160 151 219 271 278 304 313 320 320 321 321 319 316 315 313 299 289 241 219 217 209 206 197 191 195 193 191 188 183 179 174 171 169
11 274 331 334 331 312 51 286 276 310 297 287 292 288 258 169 177 246 245 251 267 305 320 322 322 318 316 315 313 311 309 299 287 275 226 211 216 207 200 194 196 194 189 184 177 176 177 166 164
300 330 302 272 323 344 284 276 296 298 273 278 281 239 135 223 250 242 214 251 276 290 317 324 322 320 320 312 306 303 301 302 299 277 273 225 209 205 203 201 192 193 186 183 177 173 174 173 164
232 253 275 260 254 343 253 287 293 298 271 255 275 230 277 270 287 286 303 318 324 320 315 312 308 305 306 307 296 293 285 291 294 291 292 272 228 211 204 199 192 189 187 182 177 168 164 149 166
300 298 307 300 356 305 294 294 294 291 241 189 166 340 264 254 296 353 357 331 318 307 305 303 305 304 302 300 296 286 284 282 282 288 288 290 267 256 195 198 191 189 187 183 172 169 156 163 168
305 223 296 257 316 313 347 319 328 302 105 78 22 20 26 24 6 331 324 319 311 304 303 309 306 300 292 291 292 291 286 285 280 281 285 284 291 261 207 195 190 186 186 178 172 174 171 163 178
303 161 303 294 15 297 72 283 301 284 329 96 63 64 29 358 342 331 320 312 307 306 311 311 306 298 293 289 282 276 276 269 270 273 280 284 282 271 262 188 190 185 181 182 176 181 178 173 177
253 308 281 263 245 35 338 62 268 302 292 306 348 31 9 334 319 320 317 308 312 310 308 305 297 295 291 284 280 279 278 271 266 268 274 278 280 282 269 254 192 187 188 187 181 181 183 185 182
287 310 354 116 91 22 240 139 280 260 236 288 349 354 318 322 333 320 317 318 312 312 310 306 301 294 289 284 278 272 272 270 265 265 267 269 273 275 271 254 230 190 188 187 184 184 187 186 185
26 35 341 360 13 223 173 273 247 263 261 52 350 325 319 321 328 326 326 323 319 315 311 307 302 295 290 282 275 270 269 269 267 261 261 261 266 271 266 247 240 187 188 190 189 187 191 191 188
28 120 146 242 287 274 325 235 255 212 122 122 10 329 322 335 330 326 323 322 317 314 311 308 303 298 292 285 278 271 264 261 260 260 254 256 260 262 266 255 250 200 188 188 189 192 193 192 192
272 59 185 91 7 32 265 287 298 188 38 1 350 325 331 322 331 329 329 325 319 315 313 311 306 299 293 284 277 270 264 258 250 259 256 255 260 261 268 252 235 216 189 192 188 190 194 192 195
112 139 43 17 357 300 288 280 241 288 339 331 323 325 330 334 331 331 329 323 321 319 317 314 308 300 294 286 274 265 261 254 254 251 258 257 262 264 260 242 220 201 183 187 187 189 193 191 194
25 355 16 120 146 193 293 267 226 243 315 296 323 335 335 332 331 329 329 325 323 323 325 320 316 313 307 289 267 260 260 252 253 249 258 262 261 264 256 223 199 186 184 181 183 184 183 183 178
165 196 146 126 257 223 168 268 260 256 6 344 336 344 334 329 329 333 332 330 330 331 332 330 328 326 324 322 276 261 258 251 251 252 256 256 259 231 195 192 172 167 175 179 182 181 182 174 161